H1 CPF 2 NER 2022 5 12 9 132 01 glonass133 H2 1403201 9133 40001 2022 5 12 0 0 0 2022 5 15 23 45 0 900 1 1 0 0 0 1 H9 10 0 59711 0.00000 0 6422997.946 8370643.136 -23230260.739 10 0 59711 900.00000 0 4518208.637 10482335.770 -22819962.313 10 0 59711 1800.00000 0 2827761.984 12671768.865 -21966894.112 10 0 59711 2700.00000 0 1383290.347 14875604.721 -20687664.048 10 0 59711 3600.00000 0 204137.463 17026939.785 -19007129.825 10 0 59711 4500.00000 0 -703223.795 19057965.936 -16957916.627 10 0 59711 5400.00000 0 -1345226.506 20902686.171 -14579786.096 10 0 59711 6300.00000 0 -1740697.583 22499572.230 -11918868.332 10 0 59711 7200.00000 0 -1919820.967 23794053.851 -9026771.334 10 0 59711 8100.00000 0 -1922620.623 24740736.187 -5959584.557 10 0 59711 9000.00000 0 -1797027.793 25305252.992 -2776795.406 10 0 59711 9900.00000 0 -1596614.367 25465678.116 459860.645 10 0 59711 10800.00000 0 -1378088.336 25213436.165 3687594.284 10 0 59711 11700.00000 0 -1198657.306 24553673.951 6843777.903 10 0 59711 12600.00000 0 -1113371.698 23505076.830 9867158.828 10 0 59711 13500.00000 0 -1172560.205 22099137.224 12699046.691 10 0 59711 14400.00000 0 -1419466.283 20378905.470 15284451.857 10 0 59711 15300.00000 0 -1888186.027 18397274.810 17573152.748 10 0 59711 16200.00000 0 -2601995.256 16214871.776 19520671.372 10 0 59711 17100.00000 0 -3572137.293 13897639.554 21089138.263 10 0 59711 18000.00000 0 -4797123.655 11514214.858 22248030.018 10 0 59711 18900.00000 0 -6262578.470 9133207.186 22974765.302 10 0 59711 19800.00000 0 -7941634.691 6820493.436 23255147.718 10 0 59711 20700.00000 0 -9795867.081 4636640.239 23083646.864 10 0 59711 21600.00000 0 -11776724.470 2634560.946 22463511.880 10 0 59711 22500.00000 0 -13827402.857 857504.480 21406714.886 10 0 59711 23400.00000 0 -15885082.177 -662540.422 19933724.866 10 0 59711 24300.00000 0 -17883434.190 -1905959.449 18073115.755 10 0 59711 25200.00000 0 -19755297.171 -2866099.377 15861015.659 10 0 59711 26100.00000 0 -21435405.652 -3549303.106 13340407.339 10 0 59711 27000.00000 0 -22863060.798 -3974392.352 10560293.096 10 0 59711 27900.00000 0 -23984629.067 -4171620.572 7574740.038 10 0 59711 28800.00000 0 -24755763.682 -4181141.162 4441824.453 10 0 59711 29700.00000 0 -25143254.960 -4051056.734 1222496.138 10 0 59711 30600.00000 0 -25126431.093 -3835133.107 -2020614.566 10 0 59711 31500.00000 0 -24698049.979 -3590276.011 -5224422.907 10 0 59711 32400.00000 0 -23864644.349 -3373878.666 -8326624.209 10 0 59711 33300.00000 0 -22646305.648 -3241153.788 -11266911.784 10 0 59711 34200.00000 0 -21075916.064 -3242564.066 -13988153.659 10 0 59711 35100.00000 0 -19197861.383 -3421460.797 -16437504.726 10 0 59711 36000.00000 0 -17066279.238 -3812031.175 -18567432.449 10 0 59711 36900.00000 0 -14742916.753 -4437641.390 -20336636.249 10 0 59711 37800.00000 0 -12294687.607 -5309645.657 -21710843.191 10 0 59711 38700.00000 0 -9791030.753 -6426711.516 -22663465.286 10 0 59711 39600.00000 0 -7301180.900 -7774689.810 -23176106.497 10 0 59711 40500.00000 0 -4891463.978 -9327034.964 -23238910.641 10 0 59711 41400.00000 0 -2622729.293 -11045758.214 -22850744.372 10 0 59711 42300.00000 0 -548024.098 -12882874.224 -22019212.417 10 0 59711 43200.00000 0 1289394.120 -14782281.158 -20760505.367 10 0 59711 44100.00000 0 2857626.567 -16681996.345 -19099083.165 10 0 59711 45000.00000 0 4137219.485 -18516654.831 -17067200.452 10 0 59711 45900.00000 0 5121724.330 -20220167.281 -14704282.686 10 0 59711 46800.00000 0 5817709.863 -21728426.891 -12056164.678 10 0 59711 47700.00000 0 6244226.971 -22981952.738 -9174205.773 10 0 59711 48600.00000 0 6431749.791 -23928359.479 -6114298.305 10 0 59711 49500.00000 0 6420638.472 -24524550.253 -2935787.960 10 0 59711 50400.00000 0 6259188.908 -24738540.949 299673.279 10 0 59711 51300.00000 0 6001352.077 -24550839.231 3529319.689 10 0 59711 52200.00000 0 5704219.576 -23955320.120 6690486.864 10 0 59711 53100.00000 0 5425381.724 -22959560.911 9721825.640 10 0 59711 54000.00000 0 5220270.129 -21584620.763 12564491.347 10 0 59711 54900.00000 0 5139597.231 -19864273.450 15163285.256 10 0 59711 55800.00000 0 5227001.357 -17843724.675 17467725.969 10 0 59711 56700.00000 0 5516997.200 -15577866.814 19433030.035 10 0 59711 57600.00000 0 6033318.870 -13129143.225 21020982.797 10 0 59711 58500.00000 0 6787726.179 -10565110.581 22200682.646 10 0 59711 59400.00000 0 7779325.484 -7955800.130 22949144.328 10 0 59711 60300.00000 0 8994434.894 -5370987.134 23251749.637 10 0 59711 61200.00000 0 10407000.826 -2877481.637 23102536.604 10 0 59711 62100.00000 0 11979549.857 -536552.746 22504321.400 10 0 59711 63000.00000 0 13664637.341 1598406.898 21468650.137 10 0 59711 63900.00000 0 15406733.259 3483879.572 20015581.027 10 0 59711 64800.00000 0 17144467.311 5087801.062 18173300.461 10 0 59711 65700.00000 0 18813139.831 6390654.008 15977579.802 10 0 59711 66600.00000 0 20347393.549 7386030.785 13471082.876 10 0 59711 67500.00000 0 21683934.104 8080643.061 10702537.143 10 0 59711 68400.00000 0 22764184.696 8493778.419 7725784.420 10 0 59711 69300.00000 0 23536762.716 8656227.844 4598729.725 10 0 59711 70200.00000 0 23959673.397 8608730.367 1382209.029 10 0 59711 71100.00000 0 24002127.411 8400001.789 -1861201.454 10 0 59711 72000.00000 0 23645905.085 8084432.096 -5068410.325 10 0 59711 72900.00000 0 22886209.295 7719550.336 -8177045.666 10 0 59711 73800.00000 0 21731970.725 7363365.565 -11126674.337 10 0 59711 74700.00000 0 20205592.603 7071697.554 -13859981.297 10 0 59711 75600.00000 0 18342145.730 6895611.180 -16323885.471 10 0 59711 76500.00000 0 16188047.849 6879063.696 -18470570.214 10 0 59711 77400.00000 0 13799283.067 7056864.683 -20258408.372 10 0 59711 78300.00000 0 11239236.081 7453034.959 -21652764.439 10 0 59711 79200.00000 0 8576231.784 8079633.592 -22626658.961 10 0 59711 80100.00000 0 5880882.781 8936102.234 -23161283.142 10 0 59711 81000.00000 0 3223354.837 10009154.201 -23246354.695 10 0 59711 81900.00000 0 670663.220 11273212.892 -22880308.974 10 0 59711 82800.00000 0 -1715888.646 12691381.192 -22070322.438 10 0 59711 83700.00000 0 -3883023.158 14216901.514 -20832168.591 10 0 59711 84600.00000 0 -5787460.483 15795045.774 -19189909.429 10 0 59711 85500.00000 0 -7397468.017 17365356.710 -17175428.415 10 0 59712 0.00000 0 -8693924.414 18864147.271 -14827813.965 10 0 59712 900.00000 0 -9670856.009 20227154.902 -12192603.642 10 0 59712 1800.00000 0 -10335422.953 21392238.097 -9320906.411 10 0 59712 2700.00000 0 -10707359.204 22302005.396 -6268415.177 10 0 59712 3600.00000 0 -10817889.049 22906264.806 -3094331.312 10 0 59712 4500.00000 0 -10708167.222 23164191.714 139779.551 10 0 59712 5400.00000 0 -10427308.719 23046123.990 3371178.322 10 0 59712 6300.00000 0 -10030091.757 22534908.474 6537166.965 10 0 59712 7200.00000 0 -9574431.060 21626741.709 9576303.062 10 0 59712 8100.00000 0 -9118728.353 20331468.850 12429590.870 10 0 59712 9000.00000 0 -8719212.142 18672327.272 15041625.729 10 0 59712 9900.00000 0 -8427379.293 16685144.655 17361669.470 10 0 59712 10800.00000 0 -8287646.715 14417024.081 19344636.037 10 0 59712 11700.00000 0 -8335312.576 11924569.991 20951968.224 10 0 59712 12600.00000 0 -8594913.542 9271728.143 22152388.570 10 0 59712 13500.00000 0 -9079047.923 6527328.615 22922509.937 10 0 59712 14400.00000 0 -9787715.114 3762433.289 23247293.942 10 0 59712 15300.00000 0 -10708200.102 1047597.468 23120348.249 10 0 59712 16200.00000 0 -11815508.987 -1549841.189 22544056.744 10 0 59712 17100.00000 0 -13073338.398 -3968334.296 21529539.671 10 0 59712 18000.00000 0 -14435539.118 -6154448.365 20096444.013 10 0 59712 18900.00000 0 -15848013.451 -8064848.105 18272567.554 10 0 59712 19800.00000 0 -17250967.345 -9667855.182 16093323.245 10 0 59712 20700.00000 0 -18581423.040 -10944517.775 13601053.746 10 0 59712 21600.00000 0 -19775886.689 -11889146.779 10844208.948 10 0 59712 22500.00000 0 -20773058.491 -12509296.901 7876402.227 10 0 59712 23400.00000 0 -21516470.646 -12825194.210 4755363.858 10 0 59712 24300.00000 0 -21956941.240 -12868635.294 1541812.290 10 0 59712 25200.00000 0 -22054739.751 -12681405.592 -1701734.207 10 0 59712 26100.00000 0 -21781371.945 -12313284.937 -4912181.459 10 0 59712 27000.00000 0 -21120908.134 -11819725.966 -8027094.127 10 0 59712 27900.00000 0 -20070798.150 -11259304.920 -10985916.344 10 0 59712 28800.00000 0 -18642138.323 -10691053.851 -13731153.538 10 0 59712 29700.00000 0 -16859379.026 -10171788.109 -16209491.933 10 0 59712 30600.00000 0 -14759485.009 -9753542.831 -18372833.675 10 0 59712 31500.00000 0 -12390583.882 -9481227.135 -20179227.470 10 0 59712 32400.00000 0 -9810159.383 -9390595.149 -21593677.117 10 0 59712 33300.00000 0 -7082864.900 -9506619.254 -22588812.944 10 0 59712 34200.00000 0 -4278048.332 -9842333.669 -23145413.987 10 0 59712 35100.00000 0 -1467090.935 -10398196.594 -23252771.794 10 0 59712 36000.00000 0 1279329.923 -11161997.283 -22908889.747 10 0 59712 36900.00000 0 3893941.220 -12109311.600 -22120514.823 10 0 59712 37800.00000 0 6315427.082 -13204486.820 -20903001.765 10 0 59712 38700.00000 0 8490729.302 -14402114.429 -19280012.550 10 0 59712 39600.00000 0 10377001.434 -15648929.424 -17283057.049 10 0 59712 40500.00000 0 11943136.779 -16886056.873 -14950883.479 10 0 59712 41400.00000 0 13170808.154 -18051512.049 -12328730.042 10 0 59712 42300.00000 0 14054977.390 -19082849.693 -9467451.740 10 0 59712 43200.00000 0 14603854.589 -19919851.651 -6422538.715 10 0 59712 44100.00000 0 14838309.878 -20507140.269 -3253044.569 10 0 59712 45000.00000 0 14790763.159 -20796607.783 -20445.128 10 0 59712 45900.00000 0 14503599.198 -20749559.437 3212550.544 10 0 59712 46800.00000 0 14027175.218 -20338479.792 6383214.001 10 0 59712 47700.00000 0 13417505.252 -19548347.354 9430012.518 10 0 59712 48600.00000 0 12733719.125 -18377441.400 12293801.896 10 0 59712 49500.00000 0 12035403.382 -16837606.078 14918973.750 10 0 59712 50400.00000 0 11379936.457 -14953959.557 17254534.922 10 0 59712 51300.00000 0 10819930.609 -12764059.147 19255098.072 10 0 59712 52200.00000 0 10400888.636 -10316555.988 20881764.316 10 0 59712 53100.00000 0 10159174.358 -7669394.290 22102880.766 10 0 59712 54000.00000 0 10120382.706 -4887628.965 22894658.400 10 0 59712 54900.00000 0 10298178.477 -2040951.412 23241638.291 10 0 59712 55800.00000 0 10693653.223 798974.513 23136997.025 10 0 59712 56700.00000 0 11295228.042 3561256.478 22582685.206 10 0 59712 57600.00000 0 12079107.141 6178484.243 21589395.982 10 0 59712 58500.00000 0 13010263.913 8589294.636 20176363.686 10 0 59712 59400.00000 0 14043918.819 10740684.683 18370995.913 10 0 59712 60300.00000 0 15127447.516 12589976.994 16208345.499 10 0 59712 61200.00000 0 16202639.307 14106355.689 13730432.101 10 0 59712 62100.00000 0 17208210.905 15271909.159 10985426.077 10 0 59712 63000.00000 0 18082469.394 16082136.513 8026710.261 10 0 59712 63900.00000 0 18766011.577 16545897.062 4911837.971 10 0 59712 64800.00000 0 19204345.072 16684805.842 1701407.806 10 0 59712 65700.00000 0 19350319.602 16532101.633 -1542122.305 10 0 59712 66600.00000 0 19166264.837 16131036.354 -4755657.806 10 0 59712 67500.00000 0 18625743.569 15532855.132 -7876702.284 10 0 59712 68400.00000 0 17714845.406 14794453.682 -10844579.352 10 0 59712 69300.00000 0 16432965.756 13975813.245 -13601616.939 10 0 59712 70200.00000 0 14793036.825 13137322.527 -16094270.391 10 0 59712 71100.00000 0 12821200.601 12337100.631 -18274162.261 10 0 59712 72000.00000 0 10555937.400 11628434.422 -20099018.554 10 0 59712 72900.00000 0 8046686.399 11057438.585 -21533483.665 10 0 59712 73800.00000 0 5352015.631 10661036.745 -22549798.884 10 0 59712 74700.00000 0 2537417.666 10465348.153 -23128332.149 10 0 59712 75600.00000 0 -327177.672 10484547.090 -23257949.781 10 0 59712 76500.00000 0 -3170070.747 10720242.172 -22936223.954 10 0 59712 77400.00000 0 -5920529.668 11161400.874 -22169472.671 10 0 59712 78300.00000 0 -8511485.455 11784821.859 -20972632.100 10 0 59712 79200.00000 0 -10882074.173 12556134.906 -19368964.023 10 0 59712 80100.00000 0 -12979921.812 13431286.303 -17389604.135 10 0 59712 81000.00000 0 -14763078.388 14358447.426 -15072959.709 10 0 59712 81900.00000 0 -16201522.229 15280266.584 -12463967.826 10 0 59712 82800.00000 0 -17278172.997 16136369.859 -9613228.067 10 0 59712 83700.00000 0 -17989372.380 16866006.120 -6576025.863 10 0 59712 84600.00000 0 -18344813.353 17410725.245 -3411264.872 10 0 59712 85500.00000 0 -18366921.764 17716976.900 -180328.722 10 0 59713 0.00000 0 -18089716.902 17738520.416 3054105.829 10 0 59713 900.00000 0 -17557199.194 17438543.869 6229283.238 10 0 59713 1800.00000 0 -16821333.613 16791402.628 9283583.051 10 0 59713 2700.00000 0 -15939713.432 15783903.391 12157715.570 10 0 59713 3600.00000 0 -14973003.147 14416078.541 14795871.695 10 0 59713 4500.00000 0 -13982268.282 12701417.160 17146806.256 10 0 59713 5400.00000 0 -13026304.567 10666541.594 19164833.525 10 0 59713 6300.00000 0 -12159079.002 8350341.583 20810715.660 10 0 59713 7200.00000 0 -11427390.547 5802600.776 22052426.834 10 0 59713 8100.00000 0 -10868848.960 3082171.424 22865778.333 10 0 59713 9000.00000 0 -10510256.933 254771.951 23234892.513 10 0 59713 9900.00000 0 -10366463.794 -2609502.061 23152516.301 10 0 59713 10800.00000 0 -10439739.304 -5438851.050 22620167.996 10 0 59713 11700.00000 0 -10719694.263 -8162518.571 21648114.128 10 0 59713 12600.00000 0 -11183751.747 -10713498.660 20255176.348 10 0 59713 13500.00000 0 -11798149.586 -13031091.415 18468371.499 10 0 59713 14400.00000 0 -12519432.270 -15063200.728 16322391.204 10 0 59713 15300.00000 0 -13296369.675 -16768278.592 13858930.507 10 0 59713 16200.00000 0 -14072221.768 -18116835.080 11125878.152 10 0 59713 17100.00000 0 -14787253.513 -19092451.116 8176383.937 10 0 59713 18000.00000 0 -15381393.330 -19692251.973 5067821.363 10 0 59713 18900.00000 0 -15796922.045 -19926822.203 1860666.033 10 0 59713 19800.00000 0 -15981077.790 -19819566.374 -1382687.838 10 0 59713 20700.00000 0 -15888465.665 -19405543.455 -4599148.857 10 0 59713 21600.00000 0 -15483169.284 -18729825.173 -7726163.192 10 0 59713 22500.00000 0 -14740473.974 -17845448.818 -10702937.634 10 0 59713 23400.00000 0 -13648128.046 -16811052.142 -13471626.271 10 0 59713 24300.00000 0 -12207088.276 -15688291.281 -15978457.104 10 0 59713 25200.00000 0 -10431717.666 -14539151.560 -18174776.389 10 0 59713 26100.00000 0 -8349426.858 -13423265.156 -20017990.370 10 0 59713 27000.00000 0 -5999773.950 -12395348.838 -21472386.517 10 0 59713 27900.00000 0 -3433060.089 -11502869.464 -22509819.019 10 0 59713 28800.00000 0 -708479.244 -10784034.876 -23110246.063 10 0 59713 29700.00000 0 2108101.176 -10266193.795 -23262109.479 10 0 59713 30600.00000 0 4946637.161 -9964710.873 -22962550.392 10 0 59713 31500.00000 0 7735579.303 -9882363.075 -22217457.451 10 0 59713 32400.00000 0 10404608.493 -10009281.696 -21041347.387 10 0 59713 33300.00000 0 12887323.653 -10323441.585 -19457080.482 10 0 59713 34200.00000 0 15123771.082 -10791676.449 -17495416.537 10 0 59713 35100.00000 0 17062711.635 -11371177.201 -15194419.741 10 0 59713 36000.00000 0 18663532.705 -12011410.276 -12598723.505 10 0 59713 36900.00000 0 19897726.504 -12656375.301 -9758669.032 10 0 59713 37800.00000 0 20749874.068 -13247107.276 -6729333.724 10 0 59713 38700.00000 0 21218094.777 -13724318.061 -3569467.660 10 0 59713 39600.00000 0 21313943.273 -14031065.986 -340358.438 10 0 59713 40500.00000 0 21061758.686 -14115341.010 2895353.982 10 0 59713 41400.00000 0 20497493.864 -13932456.172 6074889.640 10 0 59713 42300.00000 0 19667074.069 -13447144.053 9136544.571 10 0 59713 43200.00000 0 18624354.289 -12635269.147 12020886.883 10 0 59713 44100.00000 0 17428761.159 -11485083.036 14671909.636 10 0 59713 45000.00000 0 16142718.645 -9997968.354 17038118.029 10 0 59713 45900.00000 0 14828965.764 -8188638.887 19073529.804 10 0 59713 46800.00000 0 13547878.973 -6084785.816 20738569.495 10 0 59713 47700.00000 0 12354911.714 -3726183.320 22000839.156 10 0 59713 48600.00000 0 11298258.573 -1163289.292 22835750.709 10 0 59713 49500.00000 0 10416842.060 1544602.108 23227007.663 10 0 59713 50400.00000 0 9738706.539 4331580.409 23166926.741 10 0 59713 51300.00000 0 9279886.724 7127620.201 22656593.003 10 0 59713 52200.00000 0 9043798.343 9861260.960 21705845.093 10 0 59713 53100.00000 0 9021176.682 12462354.525 20333090.426 10 0 59713 54000.00000 0 9190565.692 14864766.566 18564953.295 10 0 59713 54900.00000 0 9519337.175 17008919.905 16435762.105 10 0 59713 55800.00000 0 9965197.121 18844073.784 13986885.114 10 0 59713 56700.00000 0 10478115.548 20330244.065 11265927.122 10 0 59713 57600.00000 0 11002598.061 21439684.171 8325802.425 10 0 59713 58500.00000 0 11480202.645 22157864.787 5223702.134 10 0 59713 59400.00000 0 11852194.507 22483911.572 2019976.198 10 0 59713 60300.00000 0 12062225.759 22430482.939 -1223047.563 10 0 59713 61200.00000 0 12058925.464 22023093.706 -4442283.566 10 0 59713 62100.00000 0 11798289.386 21298914.053 -7575123.077 10 0 59713 63000.00000 0 11245767.241 20305095.415 -10560658.406 10 0 59713 63900.00000 0 10377958.320 19096695.036 -13340871.895 10 0 59713 64800.00000 0 9183843.028 17734287.777 -15861766.024 10 0 59713 65700.00000 0 7665497.776 16281366.712 -18074412.305 10 0 59713 66600.00000 0 5838262.653 14801642.687 -19935898.532 10 0 59713 67500.00000 0 3730354.399 13356356.789 -21410156.365 10 0 59713 68400.00000 0 1381940.547 12001718.566 -22468653.831 10 0 59713 69300.00000 0 -1156286.904 10786577.170 -23090940.145 10 0 59713 70200.00000 0 -3824979.213 9750422.265 -23265033.273 10 0 59713 71100.00000 0 -6558362.854 8921797.379 -22987643.703 10 0 59713 72000.00000 0 -9286743.478 8317190.958 -22264230.907 10 0 59713 72900.00000 0 -11939178.759 7940450.238 -21108892.045 10 0 59713 73800.00000 0 -14446210.152 7782741.242 -19544085.424 10 0 59713 74700.00000 0 -16742541.089 7823055.527 -17600194.140 10 0 59713 75600.00000 0 -18769551.516 8029241.565 -15314938.154 10 0 59713 76500.00000 0 -20477545.330 8359516.864 -12732645.783 10 0 59713 77400.00000 0 -21827638.073 8764396.956 -9903398.192 10 0 59713 78300.00000 0 -22793207.123 9188959.929 -6882062.892 10 0 59713 79200.00000 0 -23360844.581 9575351.096 -3727234.370 10 0 59713 80100.00000 0 -23530773.533 9865422.231 -500102.017 10 0 59713 81000.00000 0 -23316710.692 10003393.997 2736733.034 10 0 59713 81900.00000 0 -22745181.452 9938429.000 5920469.460 10 0 59713 82800.00000 0 -21854316.215 9627006.560 8989322.113 10 0 59713 83700.00000 0 -20692178.587 9034998.358 11883719.638 10 0 59713 84600.00000 0 -19314695.609 8139356.606 14547460.060 10 0 59713 85500.00000 0 -17783276.875 6929342.540 16928801.751 10 0 59714 0.00000 0 -16162222.515 5407242.362 18981468.472 10 0 59714 900.00000 0 -14516027.774 3588538.145 20665550.049 10 0 59714 1800.00000 0 -12906699.291 1501527.024 21948278.506 10 0 59714 2700.00000 0 -11391192.467 -813599.854 22804668.377 10 0 59714 3600.00000 0 -10019079.292 -3306179.897 23218005.935 10 0 59714 4500.00000 0 -8830543.307 -5916946.120 23180178.917 10 0 59714 5400.00000 0 -7854785.652 -8580262.210 22691839.961 10 0 59714 6300.00000 0 -7108908.816 -11226633.810 21762400.240 10 0 59714 7200.00000 0 -6597324.781 -13785392.303 20409852.920 10 0 59714 8100.00000 0 -6311712.200 -16187440.079 18660429.323 10 0 59714 9000.00000 0 -6231524.220 -18367943.345 16548093.796 10 0 59714 9900.00000 0 -6325025.330 -20268860.215 14113886.570 10 0 59714 10800.00000 0 -6550813.198 -21841198.614 11405126.876 10 0 59714 11700.00000 0 -6859760.781 -23046909.426 8474491.539 10 0 59714 12600.00000 0 -7197296.051 -23860335.473 5378986.990 10 0 59714 13500.00000 0 -7505922.089 -24269155.544 2178834.964 10 0 59714 14400.00000 0 -7727869.932 -24274783.947 -1063705.912 10 0 59714 15300.00000 0 -7807770.778 -23892209.123 -4285558.878 10 0 59714 16200.00000 0 -7695233.237 -23149278.719 -7424063.496 10 0 59714 17100.00000 0 -7347215.397 -22085461.971 -10418200.921 10 0 59714 18000.00000 0 -6730090.323 -20750142.515 -13209785.160 10 0 59714 18900.00000 0 -5821316.794 -19200514.453 -15744596.568 10 0 59714 19800.00000 0 -4610643.981 -17499171.152 -17973435.201 10 0 59714 20700.00000 0 -3100798.780 -15711488.919 -19853073.462 10 0 59714 21600.00000 0 -1307626.393 -13902915.890 -21347089.910 10 0 59714 22500.00000 0 740322.162 -12136279.960 -22426568.699 10 0 59714 23400.00000 0 3002738.656 -10469228.286 -23070651.871 10 0 59714 24300.00000 0 5429003.215 -8951904.842 -23266934.814 10 0 59714 25200.00000 0 7960067.094 -7624962.094 -23011698.164 10 0 59714 26100.00000 0 10530694.827 -6517988.663 -22309972.516 10 0 59714 27000.00000 0 13071973.299 -5648417.197 -21175435.325 10 0 59714 27900.00000 0 15513984.336 -5020956.633 -19630142.355 10 0 59714 28800.00000 0 17788530.598 -4627571.188 -17704098.990 10 0 59714 29700.00000 0 19831802.492 -4448005.731 -15434679.512 10 0 59714 30600.00000 0 21586876.087 -4450834.451 -12865905.202 10 0 59714 31500.00000 0 23005938.826 -4594988.116 -10047594.750 10 0 59714 32400.00000 0 24052151.033 -4831695.155 -7034402.853 10 0 59714 33300.00000 0 24701066.055 -5106754.584 -3884765.043 10 0 59714 34200.00000 0 24941550.076 -5363044.785 -659768.806 10 0 59714 35100.00000 0 24776163.373 -5543162.195 2578027.474 10 0 59714 36000.00000 0 24220987.115 -5592078.329 5765805.093 10 0 59714 36900.00000 0 23304902.940 -5459702.680 8841701.609 10 0 59714 37800.00000 0 22068355.394 -5103242.820 11746009.875 10 0 59714 38700.00000 0 20561648.927 -4489261.392 14422336.203 10 0 59714 39600.00000 0 18842850.662 -3595342.380 16818695.045 10 0 59714 40500.00000 0 16975386.575 -2411295.264 18888518.961 10 0 59714 41400.00000 0 15025431.508 -939845.035 20591564.280 10 0 59714 42300.00000 0 13059202.069 803222.460 21894694.858 10 0 59714 43200.00000 0 11140265.387 2789467.633 22772528.804 10 0 59714 44100.00000 0 9326975.956 4978741.450 23207935.641 10 0 59714 45000.00000 0 7670147.509 7320629.090 23192374.118 10 0 59714 45900.00000 0 6211056.897 9756334.292 22726063.984 10 0 59714 46800.00000 0 4979863.143 12220927.203 21817988.018 10 0 59714 47700.00000 0 3994507.530 14645863.037 20485723.804 10 0 59714 48600.00000 0 3260140.404 16961667.401 18755107.986 10 0 59714 49500.00000 0 2769098.327 19100676.788 16659738.833 10 0 59714 50400.00000 0 2501432.100 20999719.964 14240326.251 10 0 59714 51300.00000 0 2425962.873 22602628.212 11543901.392 10 0 59714 52200.00000 0 2501821.150 23862469.162 8622900.906 10 0 59714 53100.00000 0 2680402.987 24743410.266 5534143.702 10 0 59714 54000.00000 0 2907659.735 25222133.468 2337720.365 10 0 59714 54900.00000 0 3126623.410 25288741.469 -904182.667 10 0 59714 55800.00000 0 3280059.629 24947117.450 -4128500.405 10 0 59714 56700.00000 0 3313134.544 24214723.370 -7272523.560 10 0 59714 57600.00000 0 3175981.651 23121845.780 -10275124.789 10 0 59714 58500.00000 0 2826058.739 21710321.563 -13077952.159 10 0 59714 59400.00000 0 2230194.325 20031797.986 -15626565.999 10 0 59714 60300.00000 0 1366236.318 18145601.021 -17871496.689 10 0 59714 61200.00000 0 224232.785 16116302.173 -19769202.716 10 0 59714 62100.00000 0 -1192905.382 14011086.399 -21282910.743 10 0 59714 63000.00000 0 -2869288.156 11897031.566 -22383321.994 10 0 59714 63900.00000 0 -4776481.568 9838413.139 -23049172.048 10 0 59714 64800.00000 0 -6874476.586 7894146.172 -23267634.178 10 0 59714 65700.00000 0 -9113151.650 6115470.447 -23034559.376 10 0 59714 66600.00000 0 -11434168.325 4543974.137 -22354549.273 10 0 59714 67500.00000 0 -13773221.787 3210036.924 -21240861.202 10 0 59714 68400.00000 0 -16062553.244 2131755.918 -19715147.634 10 0 59714 69300.00000 0 -18233620.473 1314397.623 -17807035.159 10 0 59714 70200.00000 0 -20219816.263 750397.325 -15553550.999 10 0 59714 71100.00000 0 -21959122.391 419904.538 -12998407.770 10 0 59714 72000.00000 0 -23396589.223 291850.630 -10191159.851 10 0 59714 72900.00000 0 -24486538.146 325492.892 -7186247.137 10 0 59714 73800.00000 0 -25194395.320 472369.542 -4041944.085 10 0 59714 74700.00000 0 -25498080.272 678582.953 -819234.034 10 0 59714 75600.00000 0 -25388891.350 887314.551 2419369.743 10 0 59714 76500.00000 0 -24871850.816 1041465.012 5611033.652 10 0 59714 77400.00000 0 -23965494.909 1086308.039 8693820.568 10 0 59714 78300.00000 0 -22701117.305 972045.305 11607890.251 10 0 59714 79200.00000 0 -21121497.315 656154.118 14296660.033 10 0 59714 80100.00000 0 -19279165.622 105428.089 16707903.138 10 0 59714 81000.00000 0 -17234279.788 -702376.200 18794763.305 10 0 59714 81900.00000 0 -15052197.903 -1777357.047 20516666.062 10 0 59714 82800.00000 0 -12800851.466 -3116801.030 21840108.912 10 0 59714 83700.00000 0 -10548026.804 -4705061.505 22739315.192 10 0 59714 84600.00000 0 -8358668.105 -6513988.949 23196738.919 10 0 59714 85500.00000 0 -6292314.282 -8503896.737 23203410.708 99